Weather History for KIML - December, 2013

Change the Weather History Date:

Friday, December 27, 2013

  Actual Average Record
Temperature  
Mean Temperature 40 °F 27 °F  
Max Temperature 60 °F 40 °F 74 °F (1980)
Min Temperature 20 °F 15 °F -12 °F (1916)
Degree Days  
Heating Degree Days 25 38  
Month to date heating degree days 1028 986  
Cooling Degree Days 0 0  
Month to date cooling degree days 0 0  
Year to date cooling degree days 1166 963  
Moisture  
Dew Point 20 °F    
Average Humidity 48    
Maximum Humidity 74    
Minimum Humidity 22    
Precipitation  
Precipitation 0.00 in 0.01 in 0.40 in (1927)
Sea Level Pressure  
Sea Level Pressure 30.22 in    
Wind  
Wind Speed 6 mph (West)    
Max Wind Speed 15 mph    
Max Gust Speed 21 mph    
Visibility 10 miles    
Events      
T = Trace of Precipitation, MM = Missing Value Source: NWS Daily Summary

Daily Weather History Graph

Daily Weather History Graph

Search for Another Location

Airport or City:

Trip Planner

Search our weather history database for the weather conditions in past years. The results will help you decide how hot, cold, wet, or windy it might be!

Date:

Astronomy

Dec. 27, 2013 Rise Set
Actual Time 7:08 AM MST 4:26 PM MST
Civil Twilight 6:38 AM MST 4:57 PM MST
Nautical Twilight 6:03 AM MST 5:31 PM MST
Astronomical Twilight 5:30 AM MST 6:05 PM MST
Moon 1:41 AM MST (12/27) 12:39 PM MST (12/27)
Length of Visible Light 10h 19m
Length of Day
9h 17m
Waning Crescent, 28% of the Moon is Illuminated
Dec 27
Waning Crescent
Jan 1
New
Jan 7
First Quarter
Jan 15
Full
Jan 23
Last Quarter

Hourly Weather History & Observations

Time (MST) Temp. Windchill Dew Point Humidity Pressure Visibility Wind Dir Wind Speed Gust Speed Precip Events Conditions
12:53 AM 24.1 °F 14.4 °F 17.1 °F 75% 30.29 in 10.0 mi WSW 9.2 mph - N/A   Clear
1:53 AM 25.0 °F 17.1 °F 17.1 °F 72% 30.29 in 10.0 mi WSW 6.9 mph - N/A   Clear
2:53 AM 23.0 °F 14.7 °F 16.0 °F 74% 30.29 in 10.0 mi WSW 6.9 mph - N/A   Clear
3:53 AM 24.1 °F 19.7 °F 16.0 °F 71% 30.28 in 10.0 mi WSW 3.5 mph - N/A   Clear
4:53 AM 25.0 °F 17.1 °F 17.1 °F 72% 30.28 in 10.0 mi WSW 6.9 mph - N/A   Clear
5:53 AM 24.1 °F 16.0 °F 16.0 °F 71% 30.29 in 10.0 mi WSW 6.9 mph - N/A   Clear
6:53 AM 23.0 °F 15.8 °F 16.0 °F 74% 30.31 in 10.0 mi WSW 5.8 mph - N/A   Clear
7:53 AM 25.0 °F 19.3 °F 18.0 °F 75% 30.32 in 10.0 mi WSW 4.6 mph - N/A   Clear
8:53 AM 33.1 °F 25.5 °F 21.0 °F 61% 30.31 in 10.0 mi West 9.2 mph - N/A   Clear
9:53 AM 43.0 °F 38.8 °F 24.1 °F 47% 30.30 in 10.0 mi West 6.9 mph - N/A   Clear
10:53 AM 53.1 °F - 21.9 °F 30% 30.27 in 10.0 mi West 8.1 mph - N/A   Clear
11:53 AM 59.0 °F - 21.0 °F 23% 30.23 in 10.0 mi WNW 11.5 mph 20.7 mph N/A   Clear
12:53 PM 60.1 °F - 21.0 °F 22% 30.21 in 10.0 mi WNW 11.5 mph - N/A   Clear
1:53 PM 60.1 °F - 21.9 °F 23% 30.19 in 10.0 mi WNW 6.9 mph - N/A   Clear
2:53 PM 59.0 °F - 23.0 °F 25% 30.17 in 10.0 mi West 5.8 mph - N/A   Clear
3:53 PM 55.9 °F - 23.0 °F 28% 30.18 in 9.0 mi Calm Calm - N/A   Clear
4:53 PM 46.0 °F - 21.9 °F 39% 30.19 in 10.0 mi Calm Calm - N/A   Unknown
5:53 PM 41.0 °F - 23.0 °F 49% 30.19 in 10.0 mi Calm Calm - N/A   Clear
6:53 PM 37.9 °F 34.4 °F 21.9 °F 53% 30.20 in 10.0 mi WSW 4.6 mph - N/A   Clear
7:53 PM 37.0 °F 33.3 °F 21.9 °F 54% 30.18 in 10.0 mi WSW 4.6 mph - N/A   Clear
8:53 PM 34.0 °F - 21.9 °F 61% 30.15 in 10.0 mi Calm Calm - N/A   Clear
9:53 PM 33.1 °F 27.7 °F 21.9 °F 64% 30.12 in 10.0 mi WSW 5.8 mph - N/A   Unknown
10:53 PM 28.9 °F 22.8 °F 19.9 °F 69% 30.08 in 10.0 mi West 5.8 mph - N/A   Clear
11:53 PM 28.9 °F 25.2 °F 19.0 °F 67% 30.04 in 10.0 mi West 3.5 mph - N/A   Clear